ORBCOMM FM117 (41188 NORAD) Tracking and Keplerian Element Data

This shows tracking and keplerian element data for the satellite.

Feedback or suggestion? Click here.




ElementValue
Catalog41188
NameORBCOMM FM117
Epoch Orbit45232
Epoch Day160.11512283
Epoch Year2024
RAAN70.4894
Inclination47.0015
Eccentricity0.0002914
Argument of Perigee36.1711
Mean Anonmoly323.937
Mean Motion14.56653672
Decay Rate2.026E-05
L11 41188U 15081K 24160.11512283 .00002026 00000+0 48683-3 0 9994
L22 41188 47.0015 70.4894 0002914 36.1711 323.9370 14.56653672452326



Live tracking and technical data element details for ORBCOMM FM117 (NORAD 41188). ORBCOMM FM117 can be tracked NOW for your location showing map with azimuth and elevation plus other details from your city location.







IsCatalogInMostPopularTable: catalog: 41188, numindb: 645
Update: records affected: 1



GetName: 41188 ORBCOMM FM117

Hit Count: updated at: Fri, 14 Jun 2024 19:20:42 GMT